Regional Weather Roundup
Issued by NWS

Home | Current Version | Previous Version | Text Only | Print | Product List | Glossary Off
Versions: 1 2 3 4 5 6 7 8 9 10 11 12 13 14 15 16 17 18 19 20 21 22 23 24 25 26 27 28 29 30 31 32 33 34 35 36 37 38 39 40 41 42 43 44 45 46 47 48 49 50

000
ASUS43 KLOT 111500
RWRIL

ILLINOIS REGIONAL WEATHER ROUNDUP
NATIONAL WEATHER SERVICE CHICAGO/ROMEOVILLE IL
1000 AM CDT FRI JUL 11 2014

NOTE: "FAIR" INDICATES FEW OR NO CLOUDS BELOW 12,000 FEET WITH NO
SIGNIFICANT WEATHER AND/OR OBSTRUCTIONS TO VISIBILITY.

* THESE STATIONS ARE NOT UNDER NWS QUALITY CONTROL. THEY ALSO MAY NOT
  REPORT WEATHER SUCH AS PRECIPITATION OR FOG.

ILZ001-002-007-009-015-016-024-111600-
NORTHWEST ILLINOIS

CITY           SKY/WX    TMP DP  RH WIND       PRES   REMARKS
MOLINE         PTSUNNY   72  59  63 SE8       30.15F
STERLING*      MOSUNNY   73  59  60 S6        30.19S
$$

ILZ003-004-008-010-011-017-018-111600-
NORTH CENTRAL ILLINOIS

CITY           SKY/WX    TMP DP  RH WIND       PRES   REMARKS
ROCKFORD       MOSUNNY   75  57  53 S13       30.20F
$$

ILZ005-006-012>014-019>023-111600-
NORTHEAST ILLINOIS

CITY           SKY/WX    TMP DP  RH WIND       PRES   REMARKS
CHICAGO-OHARE  MOSUNNY   75  52  44 SW5       30.20F
CHICAGO-MIDWAY MOSUNNY   76  52  43 VRB7      30.20F
AURORA         SUNNY     74  58  57 S7        30.21F
WAUKEGAN       SUNNY     74  55  51 S7        30.19F
DUPAGE AIRPORT SUNNY     75  56  51 S7        30.21S
WHEELING       SUNNY     75  53  46 VRB3      30.22S
NORTHERLY ISL    N/A     71  60  68 SE5         N/A
$$

LMZ740>746-111600-
SOUTHERN LAKE MICHIGAN

STATION/POSITION SKY/WX   TEMP    WIND        PRES    VSBY  WAVE
                          AIR SEA DIR/SP/G                  HT/PER
                          (F)     (DEG/KT/KT) (MB)    (MI)  (FT/S)
SOUTHERN BUOY              62 60  180/  4/  4 1023.6R         0
WAUKEGAN HARBOR            69     160/  6/  7 1023.7S
HARRISON CRIB              69     150/  6/  7   N/A
BURNHAM HARBOR             71     110/  6       N/A
CALUMET HARBOR             73     180/  3/  6 1023.7F
MICHIGAN CITY              70     170/  7/  8   N/A
$$

ILZ025>027-034>036-040-047-049-050-058-095>099-111600-
WEST-CENTRAL ILLINOIS

CITY           SKY/WX    TMP DP  RH WIND       PRES   REMARKS
QUINCY         SUNNY     76  62  62 S9        30.16S
$$

ILZ028>032-037-038-041>044-048-051>054-059>061-111600-
CENTRAL ILLINOIS

CITY           SKY/WX    TMP DP  RH WIND       PRES   REMARKS
DECATUR        SUNNY     76  61  59 S7        30.21S
PEORIA         SUNNY     75  58  55 S9        30.19S
SPRINGFIELD    SUNNY     77  61  57 S8        30.20R
TAYLORVILLE    NOT AVBL
$$

ILZ033-039-045-046-055>057-062-063-111600-
EAST-CENTRAL ILLINOIS

CITY           SKY/WX    TMP DP  RH WIND       PRES   REMARKS
CHAMPAIGN      SUNNY     76  60  57 VRB5      30.22S
MATTOON        SUNNY     76  60  57 S7        30.20F
$$

ILZ079-100>102-111600-
SOUTHWEST ILLINOIS

CITY           SKY/WX    TMP DP  RH WIND       PRES   REMARKS
BELLEVILLE     SUNNY     77  66  68 VRB3      30.18S
CAHOKIA*       SUNNY     78  64  61 S6        30.18S HX  80
$$

ILZ064>066-069>071-074>076-080>082-084>086-088>090-092>094-111600-
SOUTH-CENTRAL ILLINOIS

CITY           SKY/WX    TMP DP  RH WIND       PRES   REMARKS
CARBONDALE     SUNNY     79  65  62 VRB5      30.18F HX  81
MARION         SUNNY     79  64  61 S7        30.20S HX  81
MT. VERNON     SUNNY     79  64  61 S3        30.20F HX  81
$$

ILZ067-068-072-073-078-083-087-091-111600-
SOUTHEAST ILLINOIS

CITY           SKY/WX    TMP DP  RH WIND       PRES   REMARKS
$$

ABBREVIATIONS USED IN REMARKS
   TC - TEMPERATURE IN CELSIUS
  WCI - WIND CHILL INDEX
   HX - HEAT INDEX
  VSB - VISIBILITY
$$




USA.gov is the U.S. government's official web portal to all federal, state and local government web resources and services.